Location: ???????
(54.6339°N, 39.4245°E)
Time: 14:42:09
(UTC+00:00)

Cosmos 2227 Rocket - Pass Details

Date: 19 May 2025
Orbit: 837 x 845 km, 71.0° (Epoch: 20 June)

Event Time Altitude Azimuth Distance (km) Brightness Sun altitude
Exits shadow 23:08:24 - 161° (SSE) 2,899 4.6 -11.8°
Reaches altitude 10° 23:09:51 10° 153° (SSE) 2,449 4.3 -11.7°
Maximum altitude 23:14:11 23° 103° (ESE) 1,703 4.0 -11.4°
Drops below altitude 10° 23:18:31 10° 52° (NE) 2,465 5.8 -11.1°
Sets 23:21:25 0° 39° (NE) 3,406 7.3 -10.9°
